星链-11374 (STARLINK-11374)

导读

STARLINK-11374是美国太空探索技术公司SpaceX于2024年10月18日发射的星链(Starlink)卫星,属于全球大规模低轨卫星互联网星座组网计划的一部分。星链项目旨在为全球偏远、缺乏网络覆盖的区域提供低延迟、高速宽带互联网服务,该卫星发射后将进入近地轨道,助力拓展星链星座覆盖范围,目前SpaceX已累计发射数千颗星链卫星,远期规划部署数万颗卫星构建全球卫星网络。

基本信息
目录编号:
61581
目录名称:
STARLINK-11374
国际标识:
2024-187H
轨道中心:
EARTH
卫星名称:
星链-11374
卫星全名:
星链-11374 (STARLINK-11374)
卫星状态:
在轨 (已飞行693 天)
发射日期:
2024-10-18 UTC
国别 :
美国 (US)
星等 :
--
该卫星已列入 空间交会检测服务 Space Conjunction Data Service (SCDS) ,当前飞行风险评估等级: 无高风险
轨道信息
数据来源 国际轨道数据 AOE轨道数据
星历时间 2026-09-11T06:57:15+0800
10小时前
查看轨道信息
2026-09-06T22:00:00+0800
4天前
查看轨道信息
半长轴 6737.862km 6737.818km
偏心率 0.000073 0.0001815
轨道倾角 53.157° 53.159°
近地点辐角 89.576° 197.534°
升交点赤经 103.315° 124.871°
平近点角 270.534° 276.270°
近地点 359.233km 358.458km
远地点 360.217km 360.904km
周期 91.737分钟 91.736分钟
每日圈数 15.697107 15.697263
详细信息
固有亮度:
5
最大亮度:
2.5
卫星平台:
Starlink V1.0
覆盖范围:
全球
运营商:
太空探索技术公司
运营商所在国:
美国
制造商(研发单位):
太空探索技术公司
制造商所在国:
美国
使用方式:
暂无
卫星简介
Starlink 计划是 SpaceX 推出的全球卫星互联网项目,通过发射低轨道卫星,为全球尤其是偏远地区提供高速、低延迟的互联网服务。自 2019 年起,Starlink 已部署数千颗卫星,旨在缩小全球数字鸿沟,推动互联网普及。该项目还为军事、航空等行业提供通信支持,带来广泛经济效益。
2D轨道图
3D轨道图
轨道高度分析图
轨道倾角分析图
轨道综合分析图
查看轨道综合分析图
与全量物体交会距离演化趋势
与全量物体交会风险概率演化趋势